| time (UTC) | temp F | wind direction | speed knots | gust knots | rain 1hr in | rain 24hr in | rain mn in | humidity % | barometer mb |
| 20260504214137 | 83 | 217 | 0.0 | 5.2 | 0.00 | 0.00 | 0.00 | 28 | 1002.1 |
| 20260504213004 | 84 | 121 | 0.0 | 0.0 | 0.00 | 0.00 | 0.00 | 31 | 1002.2 |
| 20260504212025 | 83 | 162 | 0.0 | 3.5 | 0.00 | 0.00 | 0.00 | 29 | 1002.5 |
| 20260504211503 | 82 | 164 | 0.0 | 0.0 | 0.00 | 0.00 | 0.00 | 29 | 1002.6 |
| 20260504211033 | 82 | 164 | 0.0 | 0.9 | 0.00 | 0.00 | 0.00 | 37 | 1002.7 |
| 20260504210016 | 81 | 154 | 0.9 | 0.0 | 0.00 | 0.00 | 0.00 | 31 | 1002.7 |
| 20260504210011 | 82 | 154 | 0.0 | 3.5 | 0.00 | 0.00 | 0.00 | 31 | 1002.7 |
| 20260504205023 | 82 | 75 | 0.0 | 1.7 | 0.00 | 0.00 | 0.00 | 34 | 1002.8 |
| 20260504204508 | 81 | 75 | 0.0 | 0.0 | 0.00 | 0.00 | 0.00 | 32 | 1002.9 |
| 20260504203004 | 80 | 76 | 0.9 | 0.0 | 0.00 | 0.00 | 0.00 | 30 | 1003.3 |
| 20260504202909 | 80 | 76 | 0.0 | 4.3 | 0.00 | 0.00 | 0.00 | 31 | 1003.4 |
| 20260504201917 | 80 | 110 | 0.0 | 0.0 | 0.00 | 0.00 | 0.00 | 34 | 1003.4 |
| 20260504201606 | 80 | 110 | 0.9 | 0.0 | 0.00 | 0.00 | 0.00 | 32 | 1003.4 |
| 20260504200917 | 80 | 155 | 0.0 | 4.3 | 0.00 | 0.00 | 0.00 | 35 | 1003.6 |
| 20260504200004 | 79 | 157 | 0.9 | 0.0 | 0.00 | 0.00 | 0.00 | 35 | 1003.7 |
| 20260504195905 | 79 | 157 | 0.0 | 3.5 | 0.00 | 0.00 | 0.00 | 33 | 1003.8 |
| 20260504194508 | 78 | 155 | 0.9 | 0.0 | 0.00 | 0.00 | 0.00 | 31 | 1003.9 |
| 20260504193735 | 79 | 0 | 0.0 | 0.0 | 0.00 | 0.00 | 0.00 | 36 | 1003.8 |
| 20260504193004 | 79 | 83 | 0.9 | 0.0 | 0.00 | 0.00 | 0.00 | 37 | 1003.9 |
| 20260504192709 | 79 | 133 | 0.0 | 1.7 | 0.00 | 0.00 | 0.00 | 37 | 1003.9 |
| 20260504191645 | 78 | 134 | 0.0 | 3.5 | 0.00 | 0.00 | 0.00 | 37 | 1003.9 |
| 20260504191506 | 77 | 199 | 0.9 | 0.0 | 0.00 | 0.00 | 0.00 | 38 | 1004.0 |
| 20260504190636 | 77 | 248 | 0.0 | 4.3 | 0.00 | 0.00 | 0.00 | 39 | 1004.0 |
| 20260504190104 | 76 | 316 | 0.9 | 0.0 | 0.00 | 0.00 | 0.00 | 37 | 1004.1 |
| 20260504185635 | 76 | 315 | 0.0 | 0.0 | 0.00 | 0.00 | 0.00 | 45 | 1004.5 |
| 20260504184604 | 75 | 234 | 0.0 | 2.6 | 0.00 | 0.00 | 0.00 | 40 | 1004.5 |
| 20260504184502 | 74 | 234 | 0.9 | 0.0 | 0.00 | 0.00 | 0.00 | 38 | 1004.5 |
| 20260504183007 | 73 | 234 | 0.9 | 0.0 | 0.00 | 0.00 | 0.00 | 43 | 1004.5 |
| 20260504180243 | 71 | 234 | 0.9 | 4.3 | 0.00 | 0.00 | 0.00 | 55 | 1004.8 |
| 20260504175306 | 71 | 234 | 0.9 | 4.3 | 0.00 | 0.00 | 0.00 | 46 | 1004.8 |
| 20260504174251 | 70 | 234 | 0.0 | 1.7 | 0.00 | 0.00 | 0.00 | 46 | 1005.0 |
| 20260504173219 | 68 | 234 | 0.0 | 0.0 | 0.00 | 0.00 | 0.00 | 52 | 1005.0 |
| 20260504173007 | 68 | 234 | 0.0 | 0.0 | 0.00 | 0.00 | 0.00 | 54 | 1005.0 |
| 20260504172153 | 68 | 234 | 0.0 | 0.0 | 0.00 | 0.00 | 0.00 | 50 | 1005.3 |
| 20260504171504 | 66 | 234 | 0.0 | 0.0 | 0.00 | 0.00 | 0.00 | 52 | 1005.4 |
| 20260504171128 | 66 | 234 | 0.0 | 0.0 | 0.00 | 0.00 | 0.00 | 56 | 1005.2 |
| 20260504170130 | 65 | 234 | 0.0 | 0.0 | 0.00 | 0.00 | 0.00 | 59 | 1005.2 |
| 20260504150553 | 54 | 234 | 0.0 | 1.7 | 0.00 | 0.00 | 0.00 | 73 | 1006.8 |
| 20260504130310 | 53 | 150 | 0.0 | 3.5 | 0.00 | 0.00 | 0.00 | 68 | 1005.6 |
| 20260504110453 | 53 | 182 | 0.0 | 0.0 | 0.00 | 0.00 | 0.00 | 66 | 1005.8 |
| 20260504100426 | 55 | 210 | 0.0 | 0.0 | 0.00 | 0.00 | 0.00 | 64 | 1005.6 |
| 20260504100137 | 55 | 210 | 0.0 | 0.0 | 0.00 | 0.00 | 0.00 | 63 | 1005.7 |
| 20260504090125 | 58 | 246 | 1.7 | 0.0 | 0.00 | 0.00 | 0.00 | 51 | 1005.6 |
| 20260504081508 | 58 | 217 | 0.0 | 0.0 | 0.00 | 0.00 | 0.00 | 58 | 1005.6 |
| 20260504081219 | 59 | 217 | 0.0 | 0.9 | 0.00 | 0.00 | 0.00 | 57 | 1005.5 |
| 20260504080207 | 60 | 233 | 0.0 | 0.0 | 0.00 | 0.00 | 0.00 | 53 | 1005.5 |
| 20260504070305 | 64 | 289 | 2.6 | 8.7 | 0.00 | 0.00 | 0.00 | 44 | 1005.3 |
| 20260504050720 | 68 | 113 | 0.0 | 1.7 | 0.00 | 0.00 | 0.00 | 39 | 1005.4 |
| 20260504050004 | 68 | 120 | 0.9 | 0.0 | 0.00 | 0.00 | 0.00 | 39 | 1005.5 |
| 20260504044621 | 68 | 52 | 0.9 | 0.0 | 0.00 | 0.00 | 0.00 | 38 | 1005.6 |
| 20260504044612 | 69 | 52 | 0.0 | 5.2 | 0.00 | 0.00 | 0.00 | 38 | 1005.5 |
| 20260504043556 | 68 | 339 | 0.0 | 4.3 | 0.00 | 0.00 | 0.00 | 38 | 1005.6 |
| 20260504041513 | 68 | 27 | 0.0 | 0.0 | 0.00 | 0.00 | 0.00 | 38 | 1005.3 |
| 20260504041506 | 68 | 27 | 0.9 | 0.0 | 0.00 | 0.00 | 0.00 | 38 | 1005.4 |
| 20260504040532 | 66 | 230 | 0.0 | 0.9 | 0.00 | 0.00 | 0.00 | 42 | 1005.5 |
| 20260504040012 | 64 | 103 | 0.0 | 0.0 | 0.00 | 0.00 | 0.00 | 48 | 1005.6 |
| 20260504035552 | 65 | 104 | 0.0 | 0.0 | 0.00 | 0.00 | 0.00 | 51 | 1005.3 |
| 20260504034518 | 65 | 104 | 0.0 | 0.0 | 0.00 | 0.00 | 0.00 | 50 | 1005.3 |
| 20260504034506 | 65 | 104 | 0.9 | 0.0 | 0.00 | 0.00 | 0.00 | 50 | 1005.4 |
| 20260504033445 | 65 | 104 | 0.0 | 3.5 | 0.00 | 0.00 | 0.00 | 49 | 1005.2 |
| 20260504033103 | 65 | 104 | 0.0 | 0.0 | 0.00 | 0.00 | 0.00 | 49 | 1005.2 |
| 20260504032456 | 66 | 104 | 0.0 | 0.0 | 0.00 | 0.00 | 0.00 | 51 | 1005.0 |
| 20260504031604 | 66 | 104 | 0.0 | 0.0 | 0.00 | 0.00 | 0.00 | 51 | 1005.1 |
| 20260504030307 | 68 | 104 | 0.0 | 0.0 | 0.00 | 0.00 | 0.00 | 50 | 1005.3 |
| 20260504030002 | 67 | 104 | 0.0 | 0.0 | 0.00 | 0.00 | 0.00 | 51 | 1005.4 |
| 20260504025259 | 69 | 104 | 0.0 | 0.0 | 0.00 | 0.00 | 0.00 | 48 | 1005.1 |
| 20260504024504 | 70 | 104 | 0.0 | 0.0 | 0.00 | 0.00 | 0.00 | 47 | 1005.1 |
| 20260504024229 | 71 | 104 | 0.0 | 1.7 | 0.00 | 0.00 | 0.00 | 48 | 1004.8 |
| 20260504023204 | 74 | 104 | 0.0 | 0.0 | 0.00 | 0.00 | 0.00 | 44 | 1004.8 |
| 20260504023003 | 74 | 104 | 0.0 | 0.0 | 0.00 | 0.00 | 0.00 | 45 | 1004.9 |
| 20260504022157 | 76 | 172 | 0.0 | 0.9 | 0.00 | 0.00 | 0.00 | 42 | 1004.6 |
| 20260504021215 | 77 | 248 | 0.0 | 0.0 | 0.00 | 0.00 | 0.00 | 38 | 1004.5 |
| 20260504020004 | 79 | 248 | 0.0 | 0.0 | 0.00 | 0.00 | 0.00 | 42 | 1004.5 |
| 20260504015102 | 80 | 248 | 0.0 | 0.0 | 0.00 | 0.00 | 0.00 | 41 | 1004.2 |
| 20260504014602 | 81 | 248 | 0.0 | 0.0 | 0.00 | 0.00 | 0.00 | 38 | 1004.3 |
| 20260504014113 | 82 | 248 | 0.0 | 0.0 | 0.00 | 0.00 | 0.00 | 41 | 1004.4 |
| 20260504013115 | 82 | 248 | 0.0 | 0.9 | 0.00 | 0.00 | 0.00 | 31 | 1004.4 |
| 20260504013004 | 82 | 248 | 0.0 | 0.0 | 0.00 | 0.00 | 0.00 | 28 | 1004.5 |
| 20260504010910 | 82 | 248 | 0.0 | 1.7 | 0.00 | 0.00 | 0.00 | 29 | 1004.3 |
| 20260504010004 | 82 | 248 | 0.9 | 0.0 | 0.00 | 0.00 | 0.00 | 32 | 1004.4 |
| 20260504005935 | 83 | 248 | 0.0 | 1.7 | 0.00 | 0.00 | 0.00 | 35 | 1004.3 |
| 20260504003808 | 84 | 248 | 0.0 | 0.0 | 0.00 | 0.00 | 0.00 | 29 | 1004.7 |
| 20260504003007 | 83 | 248 | 0.0 | 0.0 | 0.00 | 0.00 | 0.00 | 31 | 1004.7 |
| 20260504002817 | 83 | 248 | 0.0 | 0.0 | 0.00 | 0.00 | 0.00 | 29 | 1004.9 |
| 20260504001757 | 83 | 250 | 0.0 | 1.7 | 0.00 | 0.00 | 0.00 | 28 | 1004.9 |
| 20260504001608 | 83 | 251 | 0.0 | 0.0 | 0.00 | 0.00 | 0.00 | 28 | 1004.9 |
| 20260504000754 | 83 | 251 | 0.0 | 0.9 | 0.00 | 0.00 | 0.00 | 29 | 1004.7 |
| 20260504000005 | 83 | 288 | 0.0 | 0.0 | 0.00 | 0.00 | 0.00 | 29 | 1004.7 |
| 20260503235752 | 83 | 288 | 0.0 | 0.0 | 0.00 | 0.00 | 0.00 | 34 | 1005.1 |
| 20260503234800 | 82 | 288 | 0.0 | 4.3 | 0.00 | 0.00 | 0.00 | 33 | 1005.1 |
| 20260503234604 | 82 | 256 | 0.9 | 0.0 | 0.00 | 0.00 | 0.00 | 31 | 1005.2 |
| 20260503233754 | 82 | 240 | 0.0 | 4.3 | 0.00 | 0.00 | 0.00 | 29 | 1005.1 |
| 20260503233004 | 82 | 333 | 0.0 | 0.0 | 0.00 | 0.00 | 0.00 | 32 | 1005.2 |
| 20260503232731 | 83 | 344 | 0.0 | 0.0 | 0.00 | 0.00 | 0.00 | 32 | 1005.5 |
| 20260503231748 | 82 | 333 | 0.0 | 0.0 | 0.00 | 0.00 | 0.00 | 30 | 1005.5 |
| 20260503231606 | 81 | 333 | 0.9 | 0.0 | 0.00 | 0.00 | 0.00 | 31 | 1005.6 |
| 20260503230805 | 81 | 325 | 1.7 | 1.7 | 0.00 | 0.00 | 0.00 | 33 | 1005.9 |
| 20260503230133 | 81 | 329 | 1.7 | 0.0 | 0.00 | 0.00 | 0.00 | 32 | 1005.9 |
| 20260503224656 | 83 | 136 | 0.0 | 3.5 | 0.00 | 0.00 | 0.00 | 30 | 1006.1 |
| 20260503224506 | 82 | 137 | 0.0 | 0.0 | 0.00 | 0.00 | 0.00 | 31 | 1006.2 |
| 20260503223010 | 81 | 145 | 0.9 | 0.0 | 0.00 | 0.00 | 0.00 | 33 | 1006.4 |
| 20260503222625 | 81 | 100 | 0.9 | 2.6 | 0.00 | 0.00 | 0.00 | 31 | 1006.7 |
| 20260503221612 | 81 | 257 | 1.7 | 6.1 | 0.00 | 0.00 | 0.00 | 34 | 1006.7 |
| 20260503221503 | 80 | 257 | 2.6 | 0.0 | 0.00 | 0.00 | 0.00 | 30 | 1006.7 |
| 20260503220616 | 81 | 316 | 1.7 | 6.1 | 0.00 | 0.00 | 0.00 | 34 | 1006.8 |
| 20260503220003 | 81 | 312 | 1.7 | 0.0 | 0.00 | 0.00 | 0.00 | 30 | 1006.8 |
| 20260503215621 | 82 | 241 | 0.9 | 5.2 | 0.00 | 0.00 | 0.00 | 34 | 1007.0 |
| 20260503214607 | 81 | 257 | 0.0 | 0.9 | 0.00 | 0.00 | 0.00 | 35 | 1007.0 |
| 20260503214508 | 81 | 260 | 0.0 | 0.0 | 0.00 | 0.00 | 0.00 | 31 | 1007.0 |